Regional Weather Roundup
Issued by NWS Cleveland, OH

Home | Current Version | Previous Version | Text Only | Print | Product List | Glossary Off
Versions: 1 2 3 4 5 6 7 8 9 10 11 12 13 14 15 16 17 18 19 20 21 22 23 24 25 26 27 28 29 30 31 32 33 34 35 36 37 38 39 40 41 42 43 44 45 46 47 48 49 50

000
ASUS41 KCLE 250210
RWRCLE
OHIO REGIONAL WEATHER ROUNDUP
NATIONAL WEATHER SERVICE WILMINGTON, OH
1000 PM EDT THU APR 24 2014

NOTE: "FAIR" INDICATES FEW OR NO CLOUDS BELOW 12,000 FEET WITH NO
SIGNIFICANT WEATHER AND/OR OBSTRUCTIONS TO VISIBILITY.

OHZ001>008-015>018-024>027-034-035-043-044-250300-
   NORTHWEST OHIO

CITY           SKY/WX    TMP DP  RH WIND       PRES   REMARKS
DEFIANCE       CLOUDY    46  28  49 E10       29.89R
FINDLAY        CLOUDY    47  31  53 E10       29.87F
TOLEDO EXPRESS CLOUDY    45  23  42 E13       29.90F
TOLEDO METCALF CLOUDY    46  23  40 E13G22    29.91F
LIMA           MOCLDY    52  28  39 SE12      29.87S
$$

OHZ009>014-019>023-028>033-038-089-250300-
   NORTHEAST OHIO

CITY           SKY/WX    TMP DP  RH WIND       PRES   REMARKS
CLE-HOPKINS    CLOUDY    51  28  41 E8        29.96F
CLE-LAKEFRONT  CLOUDY    49  34  56 NE8       29.93F
CUY CO. ARPT   NOT AVBL
LORAIN-ELYRIA  CLOUDY    47  31  53 E8        29.94F
ASHTABULA      PTCLDY    45  16  31 E5        30.00F
AKRON-CANTON   CLOUDY    53  22  29 E9        29.95F
WOOSTER        CLOUDY    50  30  46 SE7       29.93F
MANSFIELD      CLOUDY    50  28  42 SE8       29.92F
YOUNGSTOWN     CLOUDY    48  24  39 NE7       29.98S
$$

OHZ042-051>053-060>062-070>072-077>081-250300-
  SOUTHWEST OHIO

CITY           SKY/WX    TMP DP  RH WIND       PRES   REMARKS
CINC-COVINGTON CLOUDY    61  32  33 E8        29.82S
CINC-LUNKEN    PTCLDY    51  39  63 NE3       29.83S
HAMILTON       PTCLDY    55  33  43 E5        29.84S
DAYTON         CLOUDY    57  24  28 E10       29.86S
WRIGHT-PAT AFB MOCLDY    55  24  30 E8        29.86S
DAYTON GENERAL MOCLDY    57  24  28 E8        29.83F
WILMINGTON     MOCLDY    54  24  31 E8        29.85F
$$

OHZ036-037-039>041-045>050-054>059-063>069-073>076-082>088-250300-
  CENTRAL AND SOUTHEAST OHIO

CITY           SKY/WX    TMP DP  RH WIND       PRES   REMARKS
COLUMBUS       MOCLDY    56  24  29 E10       29.89F
OSU AIRPORT    MOCLDY    54  25  32 E10       29.88F
BOLTON FIELD   MOCLDY    54  28  36 E7        29.88F
RICKENBACK AFB MOCLDY    54  25  31 E7        29.88S
NEWARK         CLOUDY    54  25  32 E7        29.91S
MARION         CLOUDY    51  28  41 SE8       29.89F
LANCASTER      MOCLDY    53  25  33 E7        29.90S
ZANESVILLE     CLOUDY    57  22  25 E7        29.91F
NEW PHILLY     CLOUDY    54  29  38 SE3       29.95F
$$



USA.gov is the U.S. government's official web portal to all federal, state and local government web resources and services.